Location: K�ln
(50.9455°N, 6.9544°E)
Time: 08:41:20
(UTC+02:00)

ISS - Visible Passes

Search period start: 24 September 2017 00:00
Search period end: 04 October 2017 00:00
Orbit: 401 x 407 km, 51.6° (Epoch: 24 September)

Date Brightness Start Highest point End Pass type
(mag) Time Alt. Az. Time Alt. Az. Time Alt. Az.
25 Sep -1.2 21:19:15 10° SSW 21:19:31 11° SSW 21:19:31 11° SSW visible
26 Sep -1.9 20:27:54 10° S 20:29:47 14° SE 20:29:53 14° SE visible
26 Sep -0.8 22:02:31 10° WSW 22:02:34 10° WSW 22:02:34 10° WSW visible
27 Sep -2.8 21:10:24 10° SW 21:12:44 33° S 21:12:44 33° S visible
28 Sep -2.6 20:18:29 10° SSW 20:21:15 26° SSE 20:22:45 18° ESE visible
28 Sep -1.5 21:54:10 10° WSW 21:55:25 21° WSW 21:55:25 21° WSW visible
29 Sep -3.9 21:01:52 10° WSW 21:05:07 63° SSE 21:05:17 61° SE visible
30 Sep -3.3 20:09:39 10° SW 20:12:48 44° SSE 20:15:03 17° E visible
30 Sep -2.0 21:45:53 10° W 21:47:42 30° W 21:47:42 30° W visible
01 Oct -3.9 20:53:29 10° WSW 20:56:46 88° S 20:57:23 56° E visible
01 Oct -0.3 22:30:01 10° W 22:30:02 10° W 22:30:02 10° W visible
02 Oct -3.8 20:01:06 10° WSW 20:04:22 70° SSE 20:07:01 15° E visible
02 Oct -2.2 21:37:35 10° W 21:39:39 35° WNW 21:39:39 35° WNW visible
03 Oct -3.8 20:45:08 10° W 20:48:25 78° N 20:49:14 47° ENE visible
03 Oct -0.4 22:21:40 10° WNW 22:21:52 11° WNW 22:21:52 11° WNW visible
